Regional Weather Roundup
Issued by NWS Wakefield, VA

Home | Current Version | Previous Version | Graphics & Text | Print | Product List | Glossary On
Versions: 1 2 3 4 5 6 7 8 9 10 11 12 13 14 15 16 17 18 19 20 21 22 23 24 25 26 27
000
ASUS41 KAKQ 240715
RWRAKQ

REGIONAL WEATHER ROUNDUP
NATIONAL WEATHER SERVICE WAKEFIELD VA
300 AM EDT TUE MAY 24 2016

Note: "fair" indicates few or no clouds below 12,000 feet with no
significant weather and/or obstructions to visibility. * = Denotes
station may not report precipitation (e.g., rain,snow,etc.),
thunder or fog.

VAZ042-051-052>054-056-240800-
NORTHERN VIRGINIA

CITY           SKY/WX    TMP DP  RH WIND       PRES   REMARKS
WASH NATIONAL  MOCLDY    61  57  87 SW3       29.94S
DULLES         LGT RAIN  57  55  93 SW9       29.94F
FORT BELVOIR   MOCLDY    58  56  92 SE5       29.95R
QUANTICO         N/A     62  55  77 NE3       29.97R
FREDERICKSBRG* CLOUDY    57  57 100 CALM      29.93F
STAFFORD*      MOCLDY    56  54  92 NW9       29.98F
WARRENTON      FAIR      55  51  85 N5        29.97R
CULPEPER*      MOCLDY    54  54 100 CALM      29.98R
MANASSAS*      FAIR      55  55 100 W3        29.97R
LEESBURG*      CLOUDY    59  59 100 W5        29.96F
WINCHESTER     FAIR      54  52  94 CALM      29.97S
FRONT ROYAL*   FAIR      54  54 100 S7        29.97S
LURAY*         PTSUNNY   57  55  94 S6        30.00S
$$

VAZ048-049-060>072-079>083-240800-
CENTRAL AND SOUTH CENTRAL VIRGINIA

CITY           SKY/WX    TMP DP  RH WIND       PRES   REMARKS
RICHMOND       MOCLDY    51  51 100 S3        29.96F
CHESTERFIELD*  FAIR      55  43  62 CALM      29.98S
PETERSBURG*    FAIR      52  52 100 CALM      29.98S
HANOVER        FOG       53  51  93 CALM      29.98S VSB 1
TAPPAHANNOCK*  FAIR      54  54 100 CALM      29.97S
QUINTON*       FAIR      51  51  99 SW5       29.96S
CHARLOTTSVILLE FAIR      58  54  86 SW3       29.97S
GORDONSVILLE*  FAIR      56  56 100 CALM      29.96S
ORANGE*        FAIR      59  57  94 CALM      29.98R
LOUISA*        MOCLDY    59  57  94 W3        29.96R
BUMPASS*       CLOUDY    54  54 100 CALM      29.97R
FARMVILLE*     FAIR      53  53 100 CALM      29.97S
CREWE*         FAIR      51  51 100 CALM      29.98F
FORT PICKETT*  NOT AVBL
CHASE CITY*    FAIR      52  50  93 CALM      30.00S
CLARKSVILLE*   FAIR      54  54 100 W3        30.00S
SOUTH HILL*    FAIR      53  51  94 CALM      30.05S
LAWRENCEVILLE* FAIR      56  53  90 W3        29.99S
EMPORIA*       FOG       50  50 100 CALM      30.00F VSB 1/4
$$

VAZ088>098-240800-
SOUTHEAST VIRGINIA

CITY           SKY/WX    TMP DP  RH WIND       PRES   REMARKS
NORFOLK        CLOUDY    60  56  86 W3        29.96R
VIRGINIA BEACH CLOUDY    61  55  81 W5        29.94S
NORFOLK NAVAL  MOCLDY    61  57  87 W7        29.97R
WEST POINT*    FAIR      53  53  99 CALM      29.97S
SALUDA*        PTSUNNY   57  55  93 NW5       29.95S
NEWPORT NEWS   MOCLDY    60  57  89 W3        29.96S
LANGLEY AFB    MOCLDY    60  58  93 NW5       29.95S
FORT EUSTIS    FAIR      60  56  87 W3        29.94F
WILLIAMSBURG*  FAIR      57  57 100 W5        29.97F
HR EXEC AP*    CLOUDY    55  54  94 CALM      29.98S
FRANKLIN*      FAIR      54  52  90 CALM      29.98S
US460-WAKEFLD  FAIR      53  51  93 CALM      29.97F
$$

VAZ020-022-025-037-045-240800-
WEST CENTRAL AND SOUTHWEST VIRGINIA

CITY           SKY/WX    TMP DP  RH WIND       PRES   REMARKS
STAUNTON*      CLOUDY   N/A N/A N/A CALM      30.05R
WAYNESBORO*    PTSUNNY   53  52  97 CALM      30.03S
HOT SPRINGS VA FAIR      53  46  77 NW8       30.08S
LYNCHBURG      FAIR      51  50  96 CALM      30.02S
DANVILLE       FAIR      52  51  97 S5        30.02S
SOUTH BOSTON*  FAIR      49  48  95 CALM      30.00F
MARTINSVILLE   FAIR      43  43 100 CALM      30.06S
ROANOKE        FAIR      53  51  93 CALM      30.06S
BLACKSBURG     FAIR      49  49  99 NW3       30.10S FOG
DUBLIN*        FAIR      49  49  99 W6        30.09F
MARION*        FAIR      47  46  95 CALM      30.13S
HILLSVILLE*    FAIR      50  49  95 CALM      30.08F
RICHLANDS*     FAIR      51  38  61 CALM      30.10S
WISE*          FAIR      52  43  71 CALM      30.11S
ABINGDON*      FAIR      53  49  88 CALM      30.09S
$$

MDZ021>025-VAZ099-100-240800-
SOUTHERN MARYLAND AND THE DELMARVA PENINSULA

CITY           SKY/WX    TMP DP  RH WIND       PRES   REMARKS
PATUXENT RIVER MOCLDY    56  54  93 W5        29.94S
BAY BRIDGE APT CLOUDY    59  57  94 CALM      29.92S
LEONARDTOWN    CLOUDY    55  54  94 W3        29.96S
DOVER          MOCLDY    57  57 100 S7        29.90F
GEORGETOWN     CLOUDY    57  55  93 CALM      29.93F
EASTON         CLOUDY    58  58 100 S3        29.95F
CAMBRIDGE        N/A     54  54 100 CALM      29.93S
SALISBURY      CLOUDY    57  55  93 CALM      29.94R
OCEAN CITY     CLOUDY    56  51  84 NW5       29.93S
WALLOPS ISLAND CLOUDY    58  54  86 W5        29.94S
ACCOMACK*      FAIR      57  54  88 CALM      29.95R
$$

NCZ012>017-030>032-240800-
NORTH CENTRAL AND EASTERN NORTH CAROLINA

CITY           SKY/WX    TMP DP  RH WIND       PRES   REMARKS
ROANOKE RAPIDS FAIR      52  50  93 CALM      30.00R
RALEIGH        PTCLDY    52  50  93 CALM      30.03F
ELIZABETH CITY PTCLDY    57  53  86 W8        29.97R
AHOSKIE*       PTCLDY    52  51  96 CALM      30.00S
EDENTON*       PTCLDY   N/A N/A N/A W5        29.99S
CURRITUCK*     PTCLDY    57  56  94 W6        29.97R
KILL DEVIL HLS CLOUDY    61  56  85 CALM      29.94F
MANTEO         MOCLDY    59  58  98 W6        29.96F
CAPE HATTERAS  CLEAR     63  54  72 W7G17     29.98S
TARBORO*       FAIR      51  51  98 CALM      30.02R
GOLDSBORO      CLEAR     53  53 100 SW3       30.01S
WASHINGTON     CLEAR     52  51  95 W3        30.01S
GREENVILLE     CLEAR     52  52 100 W5        30.03R
NEW BERN       CLEAR     53  51  93 SW5       30.03S
WILMINGTON     CLEAR     57  54  89 NW3       30.04S
$$

VAZ048-240800-
ELSEWHERE

CITY           SKY/WX    TMP DP  RH WIND       PRES   REMARKS
HARRISBURG PA  PTCLDY    57  54  89 NW13      29.90F
BALTIMORE      CLOUDY    58  55  90 W7        29.92S
ANNAPOLIS      CLOUDY    59  56  89 CALM      29.91F
ANDREWS AFB    MOCLDY    60  56  87 W6        29.93F
PHILADELPHIA   LGT RAIN  59  54  83 SW14      29.89F
HENDERSON NC   CLEAR     49  48  95 SW6       30.01S
GREENSBORO     PTCLDY    55  52  89 SW7       30.04S
ROCKY MOUNT    MOCLDY    53  51  93 S3        30.01S
$$

VAZ100-240800-
MARINE

STATION/POSITION TIME  TEMP    WIND        PRES    WAVE   SWELL
                       AIR SEA DIR/SP/G            HT/PER HT/PER
                 (UTC) (F)     (DEG/KT/KT) (MB)    (FT/S) (FT/S)
BRANDYWINE LGT   0600   58     260/ 11/ 12 1013.2F
CAPE MAY NJ      0600   58 63  260/  7/  9 1012.8F
LEWES DE         0600   58 59  240/  3/  5 1013.3F
15NM E FENWICK I 0650   56 55              1013.1F   4/ 8
OCEAN-CITY-INLET 0600   58 58  320/  3/  4 1012.7R
WACHAPREAGUE VA  0600   58 63  280/  3/  5 1013.4F
THOMAS POINT MD  0700   60 61  210/  5/  5 1014.4F
GOOSES REEF MD   0600   60 61  240/  4/  4 1014.7F   0
COVE POINT MD    0600   58     280/  2/  3 1014.5F
SOLOMONS ISLAND  0600   59 62  240/  5/  5   N/A
BISHOPS HEAD MD  0600   60 63  310/  3/  4 1013.7F
PINEY POINT MD   0600          320/  8/  9   N/A
POTOMAC MD       0600   61 62  300/  8/ 10 1012.8F   1
CAMBRIDGE MD     0600   59 63  240/  1/  2 1012.8F
LEWISETTA VA     0600   59 63  290/  6/  7 1013.7F
RAPPAHANNOCK LGT 0600          300/ 12/ 13 1014.6R
STINGRAY PT      0600   62 63  290/ 12/ 16 1014.3F   1
YORK RVR RNG VA  0600   62     290/ 11/ 12 1013.3F
YORKTOWN VA      0600   61 65  260/ 10/ 12 1013.9F
JAMESTOWN VA     0600   61 66  290/  8/ 10   N/A
DOMINION TERM VA 0600   61     280/  8/ 10 1014.2F
KIPTOPEKE VA     0600      63  310/ 11/ 13   N/A
CHES BAY BRIDGE  0600   63 61  260/ 13/ 14 1013.9F
CAPE HENRY VA    0600   59     260/  7/  9   N/A
CHESAPEAKE LGHT  0600   59     250/  7/  8 1014.5F
WILLOUBY STN VA  0600   62     270/ 12/ 13 1014.8F
CAPE HENRY BUOY  0612      58                N/A     4/11   2/11
1ST LANDING BUOY 0600   62 62  270/ 12/ 14 1013.9F   2/ 5
CAPE CHARLES BUO 0626      59                N/A     4/10   3/10
OFFSHORE WE BUOY 0621      58                N/A     5/10   5/10
64NM E OF VA BCH 0650   57 59  320/ 10/ 12 1013.3R   6/ 9   5/ 9
DUCK PIER NC     0600   61 62  280/  8/ 10 1013.5F
44100 DUCK FRF   0624      58                N/A     5/10   2/11
44056 DUCK FRF   0611      62                N/A     4/ 8   2/11
OREGON INLET NC  0600   60 65  270/ 10/ 13 1014.2F
HATTERAS NC      0600   64 67  280/ 14/ 16 1014.6F
DIAMOND SHLS NC  0650   64 67  280/ 14/ 14 1015.2R   4/ 9   3/ 9C1F1C2F2C3F3C4F4C5F5C6F6C7F7C8M1C9!



USA.gov is the U.S. government's official web portal to all federal, state and local government web resources and services.